FW7086 Weather Reports


Display with metric or nautical units.
time (UTC)temp
F
wind
direction
speed
MPH
gust
MPH
rain 1hr
in
rain 24hr
in
rain mn
in
humidity
%
barometer
mb
20260504191452 80 187 6.0 8.0 0.00 0.00 0.00 29 1001.0
20260504190947 80 291 5.0 8.0 0.00 0.00 0.00 30 1001.1
20260504190443 80 276 2.0 3.0 0.00 0.00 0.00 32 1001.2
20260504185940 80 172 6.0 9.0 0.00 0.00 0.00 32 1001.2
20260504185437 80 159 4.0 4.0 0.00 0.00 0.00 32 1001.2
20260504184933 79 284 0.0 1.0 0.00 0.00 0.00 34 1001.0
20260504184429 78 208 1.0 2.0 0.00 0.00 0.00 32 1001.1
20260504183925 78 113 3.0 4.0 0.00 0.00 0.00 31 1001.3
20260504183423 78 244 6.0 10.0 0.00 0.00 0.00 32 1001.5
20260504182921 78 158 2.0 3.0 0.00 0.00 0.00 32 1001.4
20260504182417 78 211 4.0 6.0 0.00 0.00 0.00 33 1001.6
20260504181914 77 181 4.0 4.0 0.00 0.00 0.00 32 1001.7
20260504181411 78 216 6.0 7.0 0.00 0.00 0.00 33 1001.6
20260504180910 77 155 5.0 6.0 0.00 0.00 0.00 33 1001.6
20260504180408 77 201 4.0 7.0 0.00 0.00 0.00 32 1001.9
20260504175906 78 210 7.0 9.0 0.00 0.00 0.00 32 1002.1
20260504175403 78 168 4.0 6.0 0.00 0.00 0.00 34 1001.8
20260504174900 77 198 2.0 3.0 0.00 0.00 0.00 33 1001.9
20260504174358 77 194 6.0 8.0 0.00 0.00 0.00 33 1001.8
20260504173855 76 211 7.0 10.0 0.00 0.00 0.00 33 1002.0
20260504173351 77 205 9.0 14.0 0.00 0.00 0.00 34 1002.1
20260504172849 76 193 2.0 2.0 0.00 0.00 0.00 38 1001.9
20260504172345 76 238 8.0 10.0 0.00 0.00 0.00 38 1002.0
20260504171841 76 240 5.0 6.0 0.00 0.00 0.00 37 1002.2
20260504171338 76 281 5.0 6.0 0.00 0.00 0.00 39 1002.3
20260504170835 76 198 5.0 8.0 0.00 0.00 0.00 37 1002.4
20260504170332 75 149 9.0 11.0 0.00 0.00 0.00 39 1002.3
20260504160251 73 346 4.0 7.0 0.00 0.00 0.00 39 1003.2
20260504150716 70 189 4.0 6.0 0.00 0.00 0.00 41 1003.9
20260504150213 70 250 3.0 6.0 0.00 0.00 0.00 41 1004.1
20260504141142 65 112 0.0 0.0 0.00 0.00 0.00 50 1004.5
20260504140639 66 139 4.0 6.0 0.00 0.00 0.00 50 1004.6
20260504140134 64 225 2.0 3.0 0.00 0.00 0.00 53 1004.6
20260504130602 61 165 1.0 1.0 0.00 0.00 0.00 60 1005.2
20260504110450 51 196 2.0 2.0 0.00 0.00 0.00 80 1005.6
20260504100413 51 153 0.0 0.0 0.00 0.00 0.00 79 1005.5
20260504081806 50 174 0.0 0.0 0.00 0.00 0.00 80 1005.5
20260504081302 51 87 0.0 0.0 0.00 0.00 0.00 80 1005.3
20260504080759 51 154 0.0 0.0 0.00 0.00 0.00 81 1005.3
20260504080255 51 155 0.0 0.0 0.00 0.00 0.00 79 1005.4
20260504070223 55 162 0.0 0.0 0.00 0.00 0.00 71 1006.4
20260504060143 59 223 3.0 6.0 0.00 0.00 0.00 64 1006.8
20260504050611 60 184 2.0 3.0 0.00 0.00 0.00 61 1006.9
20260504050108 60 166 3.0 4.0 0.00 0.00 0.00 62 1007.2
20260504045605 60 239 2.0 2.0 0.00 0.00 0.00 62 1007.2
20260504045100 60 157 2.0 3.0 0.00 0.00 0.00 61 1006.9
20260504044558 60 145 1.0 1.0 0.00 0.00 0.00 63 1007.2
20260504044055 61 359 2.0 3.0 0.00 0.00 0.00 61 1007.1
20260504043552 60 173 2.0 4.0 0.00 0.00 0.00 61 1007.1
20260504043049 60 174 5.0 6.0 0.00 0.00 0.00 61 1006.9
20260504042546 60 175 2.0 2.0 0.00 0.00 0.00 61 1007.2
20260504042043 60 149 4.0 7.0 0.00 0.00 0.00 61 1007.1
20260504041539 60 169 2.0 2.0 0.00 0.00 0.00 61 1007.1
20260504041035 60 202 2.0 3.0 0.00 0.00 0.00 62 1007.3
20260504040533 60 171 2.0 4.0 0.00 0.00 0.00 61 1007.3
20260504040029 60 149 1.0 2.0 0.00 0.00 0.00 61 1007.3
20260504035526 60 148 3.0 6.0 0.00 0.00 0.00 61 1007.2
20260504035022 60 227 3.0 4.0 0.00 0.00 0.00 61 1007.3
20260504034520 59 165 2.0 2.0 0.00 0.00 0.00 61 1007.2
20260504034017 60 155 2.0 3.0 0.00 0.00 0.00 61 1007.4
20260504033515 60 169 2.0 2.0 0.00 0.00 0.00 60 1007.6
20260504033012 60 194 3.0 3.0 0.00 0.00 0.00 59 1007.6
20260504032509 60 160 1.0 2.0 0.00 0.00 0.00 59 1007.7
20260504032005 61 139 2.0 2.0 0.00 0.00 0.00 58 1007.7
20260504031502 61 161 2.0 2.0 0.00 0.00 0.00 58 1007.7
20260504030959 61 177 1.0 2.0 0.00 0.00 0.00 57 1007.9
20260504030456 61 156 2.0 2.0 0.00 0.00 0.00 57 1007.7
20260504025952 61 167 1.0 1.0 0.00 0.00 0.00 57 1007.7
20260504025449 62 164 3.0 4.0 0.00 0.00 0.00 56 1008.0
20260504024946 62 195 2.0 2.0 0.00 0.00 0.00 55 1007.9
20260504024443 62 211 1.0 2.0 0.00 0.00 0.00 56 1007.7
20260504023940 62 147 3.0 4.0 0.00 0.00 0.00 54 1007.7
20260504023436 63 158 1.0 2.0 0.00 0.00 0.00 54 1007.7
20260504022932 63 174 2.0 2.0 0.00 0.00 0.00 54 1007.6
20260504022429 63 204 1.0 1.0 0.00 0.00 0.00 54 1007.8
20260504021925 63 210 2.0 2.0 0.00 0.00 0.00 53 1007.6
20260504021423 63 145 1.0 2.0 0.00 0.00 0.00 53 1007.6
20260504020920 64 173 2.0 3.0 0.00 0.00 0.00 52 1007.6
20260504020416 64 212 4.0 4.0 0.00 0.00 0.00 52 1007.4
20260504015913 64 169 4.0 4.0 0.00 0.00 0.00 52 1007.4
20260504015409 64 195 4.0 6.0 0.00 0.00 0.00 52 1007.4
20260504014906 64 174 5.0 7.0 0.00 0.00 0.00 51 1007.2
20260504014402 64 164 2.0 2.0 0.00 0.00 0.00 51 1007.3
20260504013859 64 249 2.0 2.0 0.00 0.00 0.00 51 1007.0
20260504013357 64 166 2.0 3.0 0.00 0.00 0.00 51 1007.1
20260504012853 64 166 3.0 4.0 0.00 0.00 0.00 50 1007.1
20260504012351 64 193 4.0 6.0 0.00 0.00 0.00 51 1007.1
20260504011848 65 210 3.0 4.0 0.00 0.00 0.00 50 1006.9
20260504011344 65 162 2.0 3.0 0.00 0.00 0.00 50 1006.9
20260504010841 65 219 2.0 2.0 0.00 0.00 0.00 50 1006.9
20260504010336 66 157 2.0 3.0 0.00 0.00 0.00 49 1006.8
20260504005833 66 183 5.0 7.0 0.00 0.00 0.00 48 1007.0
20260504005330 66 237 4.0 4.0 0.00 0.00 0.00 48 1007.0
20260504004827 66 238 4.0 6.0 0.00 0.00 0.00 47 1007.1
20260504004325 66 194 4.0 6.0 0.00 0.00 0.00 47 1007.0
20260504003821 66 194 2.0 3.0 0.00 0.00 0.00 47 1007.0
20260504003318 67 226 3.0 4.0 0.00 0.00 0.00 46 1007.0
20260504002815 67 204 3.0 4.0 0.00 0.00 0.00 45 1006.9
20260504002312 67 176 4.0 4.0 0.00 0.00 0.00 46 1007.1
20260504001809 67 213 3.0 3.0 0.00 0.00 0.00 45 1006.8
20260504001306 67 107 3.0 4.0 0.00 0.00 0.00 45 1006.9
20260504000803 68 179 2.0 3.0 0.00 0.00 0.00 44 1007.0
20260504000300 68 169 4.0 6.0 0.00 0.00 0.00 44 1006.9
20260503235758 68 231 4.0 7.0 0.00 0.00 0.00 43 1007.0
20260503235255 68 178 6.0 7.0 0.00 0.00 0.00 43 1006.8
20260503234753 69 204 3.0 3.0 0.00 0.00 0.00 43 1007.1
20260503234250 69 160 2.0 3.0 0.00 0.00 0.00 43 1007.0
20260503233748 69 182 2.0 4.0 0.00 0.00 0.00 42 1007.1
20260503233243 69 130 6.0 8.0 0.00 0.00 0.00 42 1006.9
20260503232741 69 131 4.0 4.0 0.00 0.00 0.00 42 1006.9
20260503232238 69 220 5.0 7.0 0.00 0.00 0.00 41 1006.8
20260503231736 69 155 7.0 11.0 0.00 0.00 0.00 41 1007.1
20260503231232 69 185 2.0 4.0 0.00 0.00 0.00 41 1007.3
20260503230728 69 139 4.0 6.0 0.00 0.00 0.00 41 1007.0
20260503230226 68 186 6.0 7.0 0.00 0.00 0.00 41 1007.2
20260503225723 69 130 4.0 6.0 0.00 0.00 0.00 41 1007.5
20260503225223 69 145 7.0 10.0 0.00 0.00 0.00 41 1007.3
20260503224720 68 196 4.0 6.0 0.00 0.00 0.00 40 1007.3
20260503224218 68 273 5.0 9.0 0.00 0.00 0.00 41 1007.5
20260503223715 68 203 6.0 8.0 0.00 0.00 0.00 41 1007.5
20260503223213 68 211 3.0 3.0 0.00 0.00 0.00 41 1007.5
20260503222709 68 194 2.0 3.0 0.00 0.00 0.00 41 1007.7
20260503222207 67 175 3.0 4.0 0.00 0.00 0.00 42 1007.7
20260503221706 67 178 5.0 6.0 0.00 0.00 0.00 42 1007.7
20260503221203 67 171 6.0 11.0 0.00 0.00 0.00 41 1007.8
20260503220659 67 189 7.0 8.0 0.00 0.00 0.00 41 1007.8
20260503220155 66 158 7.0 8.0 0.00 0.00 0.00 42 1007.8
20260503215653 66 188 7.0 14.0 0.00 0.00 0.00 42 1007.8
20260503215149 67 151 10.0 13.0 0.00 0.00 0.00 41 1008.0
20260503214648 67 243 6.0 9.0 0.00 0.00 0.00 41 1008.2
20260503214144 67 144 2.0 3.0 0.00 0.00 0.00 41 1008.0
20260503213643 67 192 7.0 11.0 0.00 0.00 0.00 41 1008.0
20260503213140 67 147 8.0 9.0 0.00 0.00 0.00 40 1008.3
20260503212637 67 170 5.0 7.0 0.00 0.00 0.00 40 1008.4
20260503212134 67 192 8.0 13.0 0.00 0.00 0.00 39 1008.5
20260503211632 68 189 11.0 17.0 0.00 0.00 0.00 38 1008.4
20260503211127 68 222 2.0 4.0 0.00 0.00 0.00 39 1008.7
20260503210624 66 161 10.0 16.0 0.00 0.00 0.00 39 1008.5
20260503210120 65 227 9.0 14.0 0.00 0.00 0.00 39 1008.9
20260503205616 64 160 8.0 9.0 0.00 0.00 0.00 40 1008.8
20260503205112 64 253 6.0 9.0 0.00 0.00 0.00 41 1009.0
20260503204609 64 170 11.0 16.0 0.00 0.00 0.00 40 1009.1
20260503204107 64 174 8.0 11.0 0.00 0.00 0.00 40 1009.2
20260503203604 64 186 5.0 7.0 0.00 0.00 0.00 41 1009.1
20260503203101 64 240 5.0 9.0 0.00 0.00 0.00 41 1009.3
20260503202559 64 192 14.0 18.0 0.00 0.00 0.00 40 1009.5
20260503202056 64 179 5.0 8.0 0.00 0.00 0.00 41 1009.3
20260503201554 64 197 7.0 11.0 0.00 0.00 0.00 41 1009.5
20260503201051 64 182 12.0 17.0 0.00 0.00 0.00 41 1009.5
20260503200547 65 202 17.0 23.0 0.00 0.00 0.00 42 1009.9
20260503200044 65 186 10.0 14.0 0.00 0.00 0.00 42 1009.6
20260503195541 64 171 7.0 8.0 0.00 0.00 0.00 43 1010.0
20260503195038 65 205 11.0 17.0 0.00 0.00 0.00 43 1009.9
20260503194535 64 214 2.0 3.0 0.00 0.00 0.00 46 1010.0
20260503194035 63 228 9.0 17.0 0.00 0.00 0.00 47 1010.0
20260503193532 63 167 2.0 2.0 0.00 0.00 0.00 51 1010.0
20260503193027 62 172 8.0 15.0 0.00 0.00 0.00 49 1010.2
20260503192523 62 176 14.0 18.0 0.00 0.00 0.00 51 1010.2
20260503192020 61 163 7.0 8.0 0.00 0.00 0.00 52 1010.2
20260503191517 61 152 12.0 18.0 0.00 0.00 0.00 51 1010.5